{"data":{"norad_id":56548,"epoch":"2026-09-20T04:18:33.489792Z","epoch_age_seconds":142460,"freshness":"FRESH","line1":"1 56548U 23065AX  26263.17955428  .00000686  00000+0  34466-4 0  9990","line2":"2 56548  43.0024 205.4832 0001298 269.5070  90.5633 15.27575108186211","mean_motion":15.27575108,"eccentricity":0.0001298,"inclination_deg":43.0024,"raan_deg":205.4832,"arg_perigee_deg":269.507,"mean_anomaly_deg":90.5633,"bstar":3.4466e-5,"rev_number":18621,"period_min":94.267050599256,"perigee_km":482.17316063,"apogee_km":483.95432834327,"semimajor_km":6861.2007444866,"source":"CELESTRAK","updated_at":"2026-09-21T09:00:33.478133Z"}}